SHIYAN 3 (SY-3)

Satellite information

Favourite Embed

Satellite Type and Status

PAYLOADIN ORBIT

Key statistics

Satellite SHIYAN 3 (SY-3) at a glance.

Uptime

6088

Days in orbit

Revolutions

≈ 14.3

Per day

Orbit

SSO

Sun Synchronous Orbit

Inclination

98.6

Latest

Satellite identification and parameters

Extended collection of information and parameters for SHIYAN 3 (SY-3).

Object identification

Identified? True

Debris? False

Object name: SHIYAN 3 (SY-3)

International designator: 2008-056A

Object number (NORAD): 33433

Object ID (CCSDS): 33433

Country: PEOPLES REPUBLIC OF CHINA (PRC)

Current information (Y/N): Y

RCS size: MEDIUM

Orbital parameters

Period: 100.654 minutes

Inclination: 98.6379 deg

SMA: 7167.715 km

Apoapsis: 800.142 km

Periapsis: 779.017 km

RAAN: 211.9801 deg

Eccentricy: 0.0014736

Argument of periapsis: 71.9905 deg

Mean anomaly: 288.2882 deg

Mean motion: 14.30644421 rev/day

Mean motion (dot): 0.00000117 rev/day2

B* drag term: 0.000061762 1/REarth

Two-line elements (TLE)

Creation date: July 6, 2025, 10:56 p.m.

Reference frame: TEME

Reference center: EARTH

Epoch: July 6, 2025, 3:40 p.m. UTC

TLE line 0: 0 SHIYAN 3 (SY-3)

TLE line 1: 1 33433U 08056A 25187.65281913 .00000117 00000-0 61762-4 0 9998

TLE line 2: 2 33433 98.6379 211.9801 0014736 71.9905 288.2882 14.30644421869789

Live tracking on map

Real-time ground track for satellite SHIYAN 3 (SY-3).

In-orbit conjunctions

There are no conjunctions computed for SHIYAN 3 (SY-3), at the moment. Check back to stay up to date, as we update our databases every day.

Go to all conjunctions

Associated space launch

Chinese experimental Earth observation satellite

SHIYAN 3 (SY-3) was lifted into orbit during the mission ‘Long March 2D | Shiyan Weixing 3’, on board a Long March 2D space rocket.

The launch took place on Nov. 5, 2008, 12:15 a.m. from Launch Area 4 (SLS-2 / 603).

For more information about the launch, click the button.

Launch to space Long March 2D | Shiyan Weixing 3
Long March 2D | Shiyan Weixing 3

Agency: N/A

Status: Launch Successful

Launch date: Nov. 5, 2008, 12:15 a.m. UTC

Rocket: Long March 2D

Launch pad: Launch Area 4 (SLS-2 / 603)

Location: Jiuquan Satellite Launch Center, People's Republic of China

...

Latest news about this satellite

There are no fresh news available about this satellite. Check back as we update our databases every day.


Newsletter sign-up

Weekly statistics, charts and insights to help you stay on top of the space industry.